814  
NZUS99 KSGF 290907  
HRRSGF  
 
HOURLY WEATHER  
NATIONAL WEATHER SERVICE SPRINGFIELD MO  
300 AM CST MON NOV 29 2021  
   
.....SGF CWA...
 
 
 
CITY SKY/WX TMP DP RH WIND PRES REMARKS  
SPRINGFIELD PTCLDY 34 29 82 S7 30.14F WCI 28  
JOPLIN CLEAR 37 31 78 S9 30.14F WCI 30  
WEST PLAINS PTCLDY 32 24 72 CALM 30.18F  
ROLLA CLEAR 34 22 61 S8 30.15F WCI 27  
BRANSON CLEAR 37 32 81 S5 30.17F WCI 34  
   
.....SURROUNDING SGF CWA...
 
 
 
CITY SKY/WX TMP DP RH WIND PRES REMARKS  
CHANUTE CLEAR 41 33 73 S9 30.10F  
PARSONS CLEAR 38 33 82 S3 30.12F  
COFFEYVILLE CLEAR 37 31 78 S5 30.12F WCI 33  
EMPORIA CLEAR 40 28 62 S10 30.04F WCI 33  
GROVE OK CLEAR 32 32 100 CALM 30.16F  
ROGERS AR CLEAR 36 32 85 SE6 30.17F WCI 31  
SILOAM SPRINGS CLEAR 32 31 96 E5 30.17F WCI 27  
HARRISON AR CLEAR 33 28 81 SE3 30.17F  
NEAR YELLVILLE CLEAR 30 29 96 CALM 30.20F  
   
.....KANSAS AND MISSOURI...
 
 
 
CITY SKY/WX TMP DP RH WIND PRES REMARKS  
KANSAS CTY INT CLEAR 41 29 62 S13 30.03F  
DOWNTOWN KC CLEAR 42 29 59 S5 30.05F  
COLUMBIA CLEAR 33 23 66 S8 30.13F WCI 26  
SEDALIA CLEAR 34 27 75 S12 30.12F WCI 25  
ST JOSEPH PTCLDY 31 26 82 CALM 30.03F  
ST LOUIS MOCLDY 38 20 48 S6 30.18F WCI 33  
SPIRIT OF STL PTCLDY 28 22 78 CALM 30.17F  
KIRKSVILLE PTCLDY 32 21 64 S9 30.08F WCI 24  
WICHITA CLEAR 35 29 78 S8 30.06F WCI 29  
TOPEKA CLEAR 42 29 59 SW3 30.04F  
OLATHE CLEAR 41 30 65 S10 30.05F  
   
.....TENNESSEE...
 
 
 
CITY SKY/WX TMP DP RH WIND PRES REMARKS  
MEMPHIS CLEAR 36 32 85 CALM 30.21R  
NASHVILLE PTCLDY 34 17 50 NW5 30.20F WCI 30  
   
.....ARKANSAS....
 
 
 
CITY SKY/WX TMP DP RH WIND PRES REMARKS  
FAYETTEVILLE CLEAR 30 28 92 CALM 30.18S  
FT SMITH CLEAR 38 35 89 CALM 30.20R  
LITTLE ROCK PTCLDY 36 33 89 W3 30.22S  
   
.....OKLAHOMA....
 
 
 
CITY SKY/WX TMP DP RH WIND PRES REMARKS  
TULSA PTCLDY 43 34 70 SE9 30.14F  
PONCA CITY CLEAR 47 31 53 S9 30.10F  
MCALESTER PTCLDY 32 31 96 CALM 30.18F  
OKLAHOMA CITY PTCLDY 38 29 70 S7 30.13F WCI 33  
   
.....IOWA.........
 
 
 
CITY SKY/WX TMP DP RH WIND PRES REMARKS  
DES MOINES MOCLDY 34 22 61 S10 29.99F WCI 26  
QUAD CITIES CLOUDY 28 21 75 CALM 30.09F  
   
.....ILLINOIS.....
 
 
 
CITY SKY/WX TMP DP RH WIND PRES REMARKS  
QUINCY CLOUDY 35 18 49 S6 30.13S WCI 30  
CHICAGO MOCLDY 28 14 55 SW6 30.10S WCI 22  
 
 
 
CLICK HERE TO GO TO PREVIOUS BULLETINS.

The Nexlab MO Page
The Nexlab KS Page Main Text Page